    Orbital elements:
    2017 KD3                                                 Earth MOID = 0.0434 AU
    Epoch 2017 Sept. 4.0 TT = JDT 2458000.5                 MPC
    M 189.97160              (2000.0)            P               Q
    n   0.94374816     Peri.   56.40628     -0.39197066     -0.91094796
    a   1.0293553      Node    57.18517     +0.78523212     -0.40409884
    e   0.3348700      Incl.    8.80046     +0.47934279     -0.08293330
    P   1.04           H   22.3           G   0.15           U   8
    Residuals in seconds of arc
    170517 G96  0.2+  0.1-    170518 G40  0.0   0.4-    170519 I52  0.2-  0.1-
    170517 G96  0.1-  0.2-    170518 G40  0.3+  0.1-    170519 I52  0.1-  0.2-
    170517 G96  0.2-  0.3-    170518 G40  0.1+  0.2-    170519 I52  0.5-  0.0
    170517 G96  0.1-  0.2-    170518 G40  0.0   0.1-    170519 I52  0.5-  0.8-
    170517 G96  0.1-  0.1-    170518 926  0.2+  0.0     170519 F51  0.1-  0.0
    170517 G96  0.1+  0.0     170518 926  0.0   0.1-    170519 F51  0.1-  0.0
    170517 G96  0.1-  0.3+    170518 926  0.2-  0.2-    170519 F51  0.1-  0.1+
    170517 G96  0.1-  0.1-    170518 926  0.1-  0.1-    170519 F51  0.1-  0.1+
    170517 E23  0.0   0.0     170518 926  0.2+  0.0     170520 J95  0.1+  0.2+
    170517 E23  0.1-  0.8+    170518 926  0.2+  0.4-    170520 J95  0.2+  0.0
    170517 E23  0.4+  0.1-    170518 G96  0.2+  0.1+    170520 J95  0.0   0.0
    170517 E23  0.1+  0.2-    170518 G96  0.1+  0.2-    170520 I52  0.1+  0.3+
    170517 160  0.2-  0.7+    170518 G96  0.5+  0.0     170520 I52  0.0   0.2+
    170517 160  0.4+  0.9+    170518 G96  0.6+  0.3-    170520 I52  0.5+  0.0
    170517 160  0.3-  0.7+    170518 595  0.4-  0.1-    170520 I52  0.1+  0.2-
    170517 160  0.5-  0.1+    170518 595  0.1+  0.3+    170520 926  0.0   0.1+
    170517 160  0.4-  0.2+    170518 595  0.3+  0.3-    170520 926  0.0   0.2-
    170517 K41  0.3+  0.2-    170519 926  0.4+  0.6-    170520 926  0.0   0.3-
    170517 K41  0.1-  0.2-    170519 926  0.4+  0.0     170520 926  0.3+  0.1-
    170517 K41  0.2-  1.0+    170519 926  0.2+  0.1-    170520 926  0.1+  0.0
    170517 J22  0.6-  0.5+    170519 I52  0.0   0.1-    170520 926  1.2-  1.2+
    170517 J22  0.2+  0.6-    170519 I52  0.1+  0.1-    170520 I93  0.3-  0.3-
    170517 J22  0.4-  0.0     170519 I52  0.2+  0.1-    170520 I93  0.2-  0.1-
    170518 G40  0.1+  0.3-    170519 I52  0.1+  0.3-    170520 I93  0.0   0.1+
    
    Ephemeris:
    2017 KD3                 a,e,i = 1.03, 0.33, 9                   q = 0.6847
    Date    TT    R. A. (2000) Decl.     Delta      r     Elong.  Phase     V
    2017 04 21    21 17 07.8 +27 35 49   0.08943 0.9727    66.5   108.7    21.1
    ...
    2017 05 06    17 50 43.1 -01 18 23   0.07083 1.0587   133.5    43.8    18.4
    ...
    2017 05 14    16 18 35.2 -15 51 58   0.09329 1.1015   166.5    12.4    18.1
    ...
    2017 05 20    15 34 22.7 -21 29 38   0.1202  1.1319   176.7     3.0    18.3
    2017 05 21    15 28 42.5 -22 08 06   0.1252  1.1368   174.5     4.9    18.5
    2017 05 22    15 23 27.1 -22 42 50   0.1304  1.1416   172.3     6.8    18.7
    ...
    2017 05 28    14 59 12.9 -25 12 11   0.1640  1.1699   161.3    16.1    19.6
    ...
    2017 06 05    14 41 12.5 -26 59 54   0.2140  1.2048   150.1    24.8    20.5
    ...
    2017 06 20    14 32 20.4 -28 39 05   0.3198  1.2618   134.7    34.9    21.8
    
    A. U. Tomatic                (C) Copyright 2017 MPC           M.P.E.C. 2017-K19
    

    Read MPEC 2017-K18 Read MPEC 2017-K20


    MPEC number:

    Enter an MPEC number in one of the following forms:

    • 1997-B01 (the full form)
    • J97B01 (the packed version of the full form)
    • B01 (the abbreviated form)